SL-14 DEB, 45290

Orbit data source: Space-Track

SL-14 DEB, 45290 is space debris in LEO originally from a launch on Thu, 15 Aug 1991 UTC launched from the Plesetsk Missile And Space Complex (PKMTR). Debris objects in space refer to the collection of defunct objects orbiting the Earth. Examples of debris include non-operational satellites, rocket bodies, and fragments generated from explosions, collisions, or faulty payload assembly.

Loading next visibility...
SL-14 DEB details
Identifier
45290, 1991-056AC
Orbit
LEO
Last TLE update14 hours ago
Origin
Flag of CISRosgidromet (CIS)
ManufacturerUnknown
MissionSpacecraft
Bus & MotorUnknown
MassUnknown
Launch date (UTC)
1991-08-15 (33 years ago)
Launch vehicleUnknown
Launch site
Plesetsk Missile And Space Complex (PKMTR)
Object type
Payload
Rocket body
Debris
Shape & HBRUnknown
Radar Cross SectionSmall (<0.1 m²)

Expand to show TLE details & history

TLE from 14 hours ago
0 SL-14 DEB
1 45290U 91056AC  24360.84173846  .00007341  00000-0  12917-1 0  9993
2 45290  82.6263 134.5212 0134506 229.9550 128.9724 13.39299804236268
Epoch: 2024-12-25T20:12Z
Definitive object data (Epoch: 2024-12-25T20:12:06.202Z)
Latitude-0.00009°
Longitude96.66565°
Altitude1,178.913 km
Speed7.233 km/s
True Right ascension08h 58m 05s
True Declination0° 00' 00"
Sunlit
Object was in full shadow at TLE epoch
Visualization TLE readout
Latitude14.21492°
Longitude98.09754°
Altitude1,197.052 km
Speed7.216 km/s
Apparent Right ascension07h 27m 34s
Apparent Declination-38° 07' 49"
Sunlit
Object is in full shadow
Visualization observer readout
Local Sidereal Time09:58:17
Azimuth208.84° SW
Elevation4.664°
Doppler factor1
Orbital elements
Apogee altitude1,209.806 km
Perigee altitude1,008.391 km
Semi-major axis7,487.236 km
Eccentricity0.0134506
Inclination82.6263°
RAAN134.5212°
Arg. of periapsis229.955°
True anomaly130.15807°
Mean anomaly128.9724°
Eccentric anomaly129.56649°
Mean motion3.35012 °/min
BSTAR0.012917
Orbital period107.46 mins
Loading maneuver chart data...
Loading historical data...
Loading historical data...
Loading historical data...
Loading historical data...
Loading historical data...
Loading historical data...
Loading historical data...

SL-14 DEB Visibility forecast

Observer location: undefined°, undefined

Span
Click to sort rows by Start time (UTC) header in descending order
Start Az.
Max El. time (UTC)
Max El. Az.
Max El.
End time (UTC)
End Az.
13 mins2024-12-26 10:39:04.193Z214.306° SW2024-12-26 10:45:04.193Z274.694° WNW35.126°2024-12-26 10:52:04.193Z354.018° N
10 mins2024-12-26 20:08:04.193Z18.084° NNE2024-12-26 20:12:04.193Z66.236° ENE30.673°2024-12-26 20:18:04.193Z137.189° SSE
10 mins2024-12-26 21:56:04.193Z329.271° NNW2024-12-26 22:01:04.193Z267.302° W30.63°2024-12-26 22:06:04.193Z212.154° SW
7 mins2024-12-27 08:13:04.193Z108.747° ESE2024-12-27 08:16:04.193Z80.851° E17.581°2024-12-27 08:20:04.193Z45.326° ENE
12 mins2024-12-27 09:58:04.193Z193.204° SSW2024-12-27 10:04:04.193Z315.782° NNW43.977°2024-12-27 10:10:04.193Z4.017° NNE
|